Regional Weather Roundup
Issued by NWS

Home | Current Version | Previous Version | Graphics & Text | Print | Product List | Glossary On
Versions: 1 2 3 4 5 6 7 8 9 10 11 12 13 14 15 16 17 18 19 20 21 22 23 24 25 26 27 28 29 30 31 32 33 34 35 36 37 38 39 40 41 42 43 44 45 46 47 48 49 50
000
ASUS43 KMKX 030211
RWRWI

WISCONSIN REGIONAL WEATHER ROUNDUP
NATIONAL WEATHER SERVICE MILWAUKEE/SULLIVAN WI
900 PM CDT TUE SEP 02 2014

NOTE: "FAIR" INDICATES FEW OR NO CLOUDS BELOW 12,000 FEET WITH NO
SIGNIFICANT WEATHER AND/OR OBSTRUCTIONS TO VISIBILITY.

WIZ001-002-006>008-014>016-023>028-030300-
NORTHWEST WISCONSIN

CITY           SKY/WX    TMP DP  RH WIND       PRES   REMARKS
SUPERIOR ARPT  CLEAR     55  53  95 CALM      29.81S
ASHLAND        CLEAR     57  54  89 SE5       29.87S
HAYWARD        CLEAR     58  56  93 CALM      29.87R
SIREN          CLEAR     64  53  67 S5        29.86S
RICE LAKE      CLEAR     62  55  78 CALM      29.89S
LADYSMITH      CLEAR     59  55  87 CALM      29.90S
EAU CLAIRE     PTCLDY    62  56  80 SW5       29.88R
MENOMONIE      PTCLDY    67  55  66 S3        29.88S
NEW RICHMOND   PTCLDY    61  55  82 CALM      29.88S
OSCEOLA        PTCLDY    61  55  80 S3        29.89S
$$

WIZ003>005-009-010-017-018-030300-
NORTH CENTRAL WISCONSIN

CITY           SKY/WX    TMP DP  RH WIND       PRES   REMARKS
WOODRUFF       PTCLDY    59  54  83 CALM      29.91R
RHINELANDER    CLEAR     56  52  86 CALM      29.91R
EAGLE RIVER    PTCLDY    55  51  84 CALM      29.90R
LAND O LAKES   PTCLDY    54  52  94 CALM      29.91R
PHILLIPS       CLEAR     58  55  87 CALM      29.89R
TOMAHAWK       CLEAR     54  52  94 CALM      29.90S
MEDFORD        CLEAR     55  54  95 CALM      29.90S
MERRILL        CLEAR     56  54  93 CALM      29.90R
$$

WIZ029-030-035-036-043>047-030300-
CENTRAL WISCONSIN

CITY           SKY/WX    TMP DP  RH WIND       PRES   REMARKS
WAUSAU         CLEAR     63  57  81 CALM      29.88S
MOSINEE        CLEAR     61  57  88 SW3       29.91R
MARSHFIELD     CLEAR     63  57  81 SW5       29.90R
STEVENS POINT  CLEAR     60  58  93 CALM      29.90S
WAUPACA        CLEAR     64  61  88 CALM      29.90R
WAUTOMA        CLEAR     61  59  93 CALM      29.91R
WISC RAPIDS    CLEAR     61  59  93 CALM      29.91R
CAMP DOUGLAS   PTCLDY    59  59 100 CALM      29.90S
$$

WIZ011>013-019>022-031-037>040-048>050-030300-
NORTHEAST WISCONSIN

CITY           SKY/WX    TMP DP  RH WIND       PRES   REMARKS
ANTIGO         CLEAR     57  54  87 CALM      29.91R
STURGEON BAY   CLEAR     63  59  88 SW5       29.88R
GREEN BAY      CLEAR     61  59  93 CALM      29.88R
MANITOWOC      CLEAR     63  61  93 CALM      29.90R
APPLETON       PTCLDY    64  55  72 W6        29.90R
CLINTONVILLE   CLEAR     61  57  88 SW3       29.89R
OSHKOSH        CLEAR     66  57  72 CALM      29.89R
$$

WIZ032>034-041-042-053>061-030300-
SOUTHWEST WISCONSIN

CITY           SKY/WX    TMP DP  RH WIND       PRES   REMARKS
LA CROSSE      CLEAR     69  59  70 W5        29.89R
SPARTA         CLEAR     61  59  94 CALM      29.91R
VIROQUA        FAIR      64  59  82 SW6       29.93R
BOSCOBEL       CLEAR     64  61  90 CALM      29.92R
PRAIRIE DU CHI CLEAR     64  60  86 CALM      29.92R
PLATTEVILLE    FAIR      66  59  79 CALM      29.94S
$$

WIZ056-057-062-063-064-067-068-030300-
SOUTH CENTRAL WISCONSIN

CITY           SKY/WX    TMP DP  RH WIND       PRES   REMARKS
BARABOO/DELLS  CLEAR     62  56  81 CALM      29.92R
LONE ROCK      CLEAR     66  59  78 CALM      29.92R
WATERTOWN      CLEAR     62  60  94 CALM      29.91S
MADISON        CLEAR     66  58  75 CALM      29.92R
MIDDLETON      FAIR      62  60  92 CALM      29.93R
MONROE         CLEAR     70  57  64 W6        29.94R
JANESVILLE     CLEAR     68  61  77 CALM      29.92R
$$

WIZ051-052-058>065-066-070>072-030300-
SOUTHEAST WISCONSIN

CITY           SKY/WX    TMP DP  RH WIND       PRES   REMARKS
MILWAUKEE      PTCLDY    69  57  65 CALM      29.92R
WAUKESHA       CLEAR     63  55  77 SW3       29.93R
MILWAUKEE/TIMM CLEAR     66  57  72 CALM      29.92R
RACINE         CLEAR     69  59  70 W5        29.94R
BURLINGTON     CLEAR     60  59  97 CALM      29.93R
KENOSHA        CLEAR     63  60  90 CALM      29.93R
FOND DU LAC    CLEAR     63  58  83 SW3       29.91R
SHEBOYGAN      CLEAR     63  60  90 S3        29.90R
WEST BEND      CLEAR     61  57  88 CALM      29.91S
JUNEAU         CLEAR     64  60  84 CALM      29.92S
$$

LSZ147-162-030300-
LAKE SUPERIOR

STATION/POSITION TIME  TEMP    WIND        PRES    WAVE
                       AIR SEA DIR/SP/G            HT/PER
                 (UTC) (F)     (DEG/KT/KT) (MB)    (FT/S)
W MID LAKE BUOY  0150   61 57  220/ 19/ 23 1008.8F   3/ 4
DEVILS ISLAND    0200   60     180/  9/ 10 1009.7R
PORT WING        0100   59     140/  3/  5 1010.2F
SAXON HARBOR     0120   60     110/  2/  5 1011.5S
$$

LMZ867-665-643>646-030300-
LAKE MICHIGAN

STATION/POSITION TIME  TEMP    WIND        PRES    WAVE
                       AIR SEA DIR/SP/G            HT/PER
                 (UTC) (F)     (DEG/KT/KT) (MB)    (FT/S)
N MID LAKE BUOY  0150   66 65  220/ 10/ 12 1010.7R   2/ 4
NORTHPORT PIER   0100   65     180/  3/  5 1010.5R
SISTER BAY       2341   73     220/  9/ 10   N/A
KEWAUNEE LAKESHO 0100   67     300/  2/  2 1010.6R
SHEBOYGAN LAKESH 0200   67 50  220/  4/  4 1012.5R
ATWATER BUOY     0200   68     200/  4/  6 1014.2R
MILWAUKEE LAKESH 0100   69      40/  2/  2   N/A
S MID LAKE BUOY  0150   72 72  160/  6/  8 1012.9R   0
KENOSHA   LAKESH 0200   72     290/  5/  7 1012.9R
$$

TC  - TEMPERATURE IN CELSIUS
VSB - VISIBILITY IN STATUTE MILES
WCI - WIND CHILL INDEX
HX  - HEAT INDEX




USA.gov is the U.S. government's official web portal to all federal, state and local government web resources and services.